User: anonymous
Location: Caltech
(34.1382°N, 118.1253°W)
Time: 10:35:29
(UTC-07:00)
Language:

Courier 1B - Orbit

View from above orbital plane
View from above orbital plane
View from above satellite
View from above satellite

Ground track
Ground track

The orbit data is extracted from the following two-line orbital elements,

1 00058U 60013A   14108.17297872  .00000116  00000-0  46354-4 0  6463
2 00058 028.3291 000.7275 0165136 142.8947 218.3140 13.46275142635400
Epoch (UTC): 18 April 2014 04:09:05
Eccentricity: 0.0165136
inclination: 28.3291°
perigee height: 963 km
apogee height: 1209 km
right ascension of ascending node: 0.7275°
argument of perigee: 142.8947°
revolutions per day: 13.46275142
mean anomaly at epoch: 218.3140°
orbit number at epoch: 63540

The dashed part of the orbit path shows where the satellite is in the earth's shadow,  

DLR